Location: Aix
(43.5287°N, 5.4488°E)
Time: 22:13:26
(UTC+00:00)

Daily predictions for brighter satellites

Satellite Brightness Start Highest point End
(mag) Time Altitude Azimuth Time Altitude Azimuth Time Altitude Azimuth
ADEOS 4.3 16:29:11 10° S 16:34:21 61° WSW 16:39:32 10° NNW
Cosmos 1340 Rocket 3.9 16:33:49 10° NNE 16:37:11 25° ENE 16:40:34 10° SE
Lacrosse 5 rocket 3.5 16:40:42 10° NNW 16:42:09 12° N 16:43:39 10° NNE
ATLAS 2AS CENTAUR R/B 4.4 16:37:26 10° W 16:44:00 28° NNW 16:50:22 10° NNE
Cosmos 1513 Rocket 4.4 16:37:57 10° S 16:44:01 77° E 16:50:12 10° N
USA 276 3.4 16:42:38 10° NW 16:45:20 26° N 16:47:51 11° ENE
ATLAS CENTAUR R/B 3.9 16:34:20 10° SSW 16:46:05 48° SE 16:50:57 10° ENE
SJ 16-02 1.4 16:46:38 10° NNW 16:51:02 86° WSW 16:55:24 10° SSE
Cosmos 2034 Rocket 4.0 16:48:08 10° S 16:54:08 58° E 17:00:10 10° NNE
Okean 3 Rocket 4.1 16:49:55 10° NNW 16:54:25 67° W 16:58:51 10° S
Cosmos 1500 Rocket 4.1 16:51:01 10° N 16:55:10 37° ENE 16:59:16 10° SE
CORIOLIS 4.1 16:53:30 10° SSE 16:58:50 69° ENE 17:04:14 10° N
USA 306 4.1 16:56:33 10° W 17:00:25 32° NNW 17:04:00 11° NE
CZ-2D R/B 3.7 16:56:51 10° SE 17:00:26 38° ENE 17:04:01 10° N
NOSS 3-1 (A) 4.3 16:54:58 10° NNW 17:02:05 47° NE 17:10:19 10° ESE
USA 234 3.5 16:56:02 10° SE 17:02:34 74° SW 17:09:07 10° NW
NOSS 3-1 (C) 4.1 16:57:55 10° NNW 17:05:23 69° NE 17:14:08 10° SE
Cosmos 1842 Rocket 3.6 17:01:30 10° S 17:05:56 86° E 17:10:26 10° N
Cosmos 1805 Rocket 4.4 17:02:13 10° NNE 17:05:58 28° ENE 17:09:42 10° SE
Cosmos 1833 Rocket 3.3 17:02:13 10° S 17:07:16 36° ESE 17:11:51 12° NE
PSLV R/B 3.6 17:08:41 10° SSE 17:12:19 63° ENE 17:15:59 10° N
CZ-4B R/B 3.5 17:07:36 10° SE 17:12:43 43° ENE 17:17:47 10° N
Cosmos 1939 Rocket 3.5 17:11:50 10° S 17:15:55 62° W 17:20:00 10° NNW
SMAP 3.4 17:12:02 10° S 17:16:40 71° WSW 17:21:20 10° NNW
USA 307 4.3 17:13:09 10° W 17:16:57 30° NNW 17:19:51 15° NE
ARGOS 3.6 17:12:07 10° SE 17:17:02 37° ENE 17:21:58 10° N
Sich 1 3.8 17:13:27 10° NNE 17:17:11 28° ENE 17:20:55 10° SE
ERBS 3.6 17:14:23 10° W 17:17:17 31° NW 17:19:27 15° NNE
Cosmos 1606 3.9 17:14:51 10° SSW 17:18:25 42° WNW 17:22:01 10° N
H-2A R/B 2.0 17:13:27 10° SSE 17:18:36 60° ENE 17:23:39 10° N
Cosmos 1634 Rocket 4.3 17:13:51 10° SSE 17:19:44 43° E 17:25:40 10° NNE
Cosmos 1898 Rocket 3.8 17:15:51 10° N 17:20:53 43° ENE 17:25:50 10° SE
MOS 1-B Rocket 4.1 17:16:39 10° NNE 17:22:21 59° ESE 17:28:44 10° S
COSMOS 2455 3.8 17:18:42 10° SSE 17:23:35 26° ESE 17:25:52 21° ENE
ATLAS CENTAUR R/B 3.7 17:22:17 10° W 17:25:16 18° NW 17:28:24 10° N
Cosmos 2221 3.5 17:21:31 10° SSW 17:25:38 48° WNW 17:29:49 10° N
Cosmos 468 Rocket 4.0 17:20:37 10° S 17:25:39 61° ESE 17:30:21 12° NNE
Landsat 5 4.1 17:27:18 23° NE 17:29:10 34° E 17:32:52 10° SSE
Cosmos 44 3.0 17:24:27 10° NNW 17:29:15 83° NE 17:33:44 10° SE
COSMO-SKYMED 1 2.7 17:29:13 12° NNE 17:33:09 53° E 17:37:23 10° S
Cosmos 540 Rocket 3.8 17:29:35 10° S 17:34:22 43° ESE 17:37:03 23° NE
SL-08 RB Rocket 4.3 17:30:49 10° SE 17:35:00 34° ENE 17:39:11 10° N
deb Chang Zheng 4 3.5 17:31:07 10° SSE 17:35:21 59° ENE 17:39:37 10° N
Cosmos 2026 Rocket 3.9 17:29:34 10° N 17:35:40 60° ENE 17:41:40 10° SSE
Cosmos 2195 Rocket 4.4 17:31:40 10° N 17:37:49 74° E 17:44:00 10° SSE
SJ-11-01 4.3 17:34:14 10° SSE 17:38:51 54° ENE 17:43:30 10° N
USA 308 4.5 17:35:49 10° WNW 17:39:23 25° NNW 17:41:12 19° NNE
CZ-2C R/B 2.5 17:34:15 10° NNE 17:39:26 63° E 17:44:33 10° S
Okean O Rocket 1.7 17:35:17 10° SSE 17:39:37 54° ENE 17:43:58 10° N
Cosmos 1500 4.3 17:38:02 10° N 17:44:45 12° SE 17:45:07 10° SSE
Helios 1B 4.4 17:40:04 14° NNE 17:43:46 70° ESE 17:48:05 10° S
Meteor 1-25 Rocket 4.1 17:39:12 10° N 17:44:47 89° E 17:50:23 10° S
ISS -2.0 17:42:16 10° NW 17:44:55 21° N 17:44:55 21° N
Meteor 2-21 4.3 17:41:07 10° N 17:47:13 66° E 17:53:12 10° SSE
CZ-4C R/B 3.6 17:41:15 10° NNW 17:47:27 32° NE 17:49:48 28° ENE
YAOGAN 1 4.5 17:50:23 16° NNE 17:50:23 16° NNE 17:51:26 10° N
Cosmos 2084 3.4 17:54:33 10° NNW 17:58:51 65° NE 17:59:42 52° ESE
Cosmos 2369 3.8 17:54:37 10° NNW 18:00:15 52° ENE 18:02:24 34° ESE
GEOS 3 Rocket 3.5 17:56:54 22° SE 18:00:20 72° NE 18:05:32 10° NNW
Cosmos 1782 2.7 17:57:02 10° S 18:01:02 89° ESE 18:02:36 36° N
DMSP B5D2-2 4.4 18:06:38 43° ESE 18:06:38 43° ESE 18:11:11 10° S
Cosmos 1763 Rocket 4.0 18:02:23 10° SW 18:07:20 55° WNW 18:11:17 16° N
Cosmos 1697 Rocket 2.6 18:02:50 10° NNW 18:08:29 88° ENE 18:14:06 10° SSE
Cosmos 1937 Rocket 3.4 18:03:28 10° NNW 18:08:49 81° ENE 18:14:07 10° SSE
Cosmos 841 Rocket 3.3 18:03:46 10° S 18:08:54 68° ESE 18:10:09 49° NE
Cosmos 1980 Rocket 2.3 18:04:58 10° NNW 18:10:29 49° ENE 18:10:40 49° ENE
USA 267 4.4 18:08:54 21° NNE 18:11:57 31° NNW 18:17:29 10° WNW
Cosmos 1812 3.9 18:08:55 10° S 18:10:59 30° S 18:10:59 30° S
SL-16 R/B 4.2 18:10:39 10° N 18:11:40 13° NNE 18:11:40 13° NNE
Spot 2 4.3 18:14:27 26° SSE 18:17:20 69° ENE 18:22:29 10° N
Cosmos 2082 Rocket 2.1 18:12:19 10° S 18:17:55 62° ESE 18:18:34 58° ENE
USA 276 4.2 18:18:35 10° WNW 18:19:58 24° NW 18:19:58 24° NW
Cosmos 1151 Rocket 3.6 18:17:49 10° S 18:20:53 46° S 18:20:53 46° S
Lacrosse 5 rocket 3.8 18:20:22 10° NNW 18:20:53 12° NNW 18:20:53 12° NNW
COSMOS 2406 3.3 18:17:41 10° SSW 18:23:26 74° WNW 18:26:02 34° NNE
Meteor 2-6 Rocket 4.3 18:19:54 10° S 18:25:12 59° ESE 18:25:12 59° ESE
Cosmos 2278 4.4 18:20:47 10° NNW 18:24:47 39° NNE 18:24:47 39° NNE
Feng Yun 1-1 Rocket 4.4 18:23:33 10° SSE 18:29:28 83° WSW 18:35:25 10° NNW
USA 229 DEB 4.1 18:22:32 10° NW 18:29:56 74° WSW 18:37:44 10° SSE
USA 229 4.1 18:22:38 10° NW 18:30:01 75° WSW 18:37:41 11° SSE
Cosmos 372 Rocket 4.0 18:30:28 10° NNW 18:35:14 74° N 18:35:14 74° N
Meteor 2-8 Rocket 4.3 18:31:21 10° S 18:37:29 80° E 18:38:41 59° NNE
Cosmos 1833 Rocket 4.0 18:46:02 10° WSW 18:51:10 36° NW 18:53:35 25° N
Cosmos 2279 Rocket 4.5 18:48:36 10° SSW 18:54:42 57° WNW 19:00:49 10° N
COSMOS 2455 3.3 19:03:15 10° SW 19:09:04 55° WNW 19:09:04 55° WNW
ATLAS CENTAUR R/B 4.2 19:11:21 10° W 19:16:49 26° NW 19:16:49 26° NW
CZ-4C R/B 3.3 19:29:21 10° NW 19:35:02 59° NW 19:35:02 59° NW
BREEZE-M DEB (TANK) 4.4 19:13:58 10° SW 19:37:07 82° SW 19:37:07 82° SW
Cosmos 1980 Rocket 4.3 19:49:35 10° NW 19:52:30 22° WNW 19:52:30 22° WNW
Cosmos 2082 Rocket 4.5 19:57:59 10° WSW 20:00:28 19° W 20:00:28 19° W
